Location: Nitra
(0.0000°N, 18.0833°E)
Time: 17:39:31
(UTC+01:00)

Cosmos 2298 Rocket - Pass Details

Date: 24 January 2021
Orbit: 775 x 784 km, 74.0° (Epoch: 01 March)

Event Time Altitude Azimuth Distance (km) Brightness Sun altitude
Rises 18:42:12 0° 195° (SSW) 3,252 7.8 -10.0°
Reaches altitude 10° 18:44:35 10° 196° (SSW) 2,323 7.0 -10.6°
Maximum altitude 18:49:51 78° 282° (WNW) 795 4.2 -11.8°
Drops below altitude 10° 18:55:07 10° 8° (N) 2,318 6.2 -13.0°
Sets 18:57:30 0° 10° (N) 3,245 7.0 -13.6°
